Tracking 19279 objects as of 14-Nov-2018
HD Live streaming from Space Station
objects crossing your sky now

COSMOS 1477

Track COSMOS 1477 now!
10-day predictions
COSMOS 1477 is classified as:


NORAD ID: 14175
Int'l Code: 1983-069E
Perigee: 1,468.1 km
Apogee: 1,471.7 km
Inclination: 74.0 °
Period: 115.2 minutes
Semi major axis: 7840 km
RCS: 0.6791 m2 (medium)
Launch date: July 6, 1983
Source: Commonwealth of Independent States (former USSR) (CIS)
Launch site: PLESETSK MISSILE AND SPACE COMPLEX (PKMTR)
aabbcc
Your satellite tracking list
Your tracking list is empty




NASA's NSSDC Master Catalog

Two Line Element Set (TLE):
1 14175U 83069E   18317.62920987 -.00000006 +00000-0 +63920-4 0  9998
2 14175 074.0289 043.0720 0002256 356.2083 108.0877 12.50412761614010
Source of the keplerian elements: AFSPC